Location: White Mills Observatory
(37.5374°N, 86.0303°W)
Time: 21:25:27
(UTC-05:00)

Hubble Space Telescope - Visible Passes

Search period start: 05 March 2015 00:00
Search period end: 15 March 2015 01:00
Orbit: 543 x 547 km, 28.5° (Epoch: 05 March)

Date Brightness Start Highest point End Pass type
(mag) Time Alt. Az. Time Alt. Az. Time Alt. Az.
05 Mar 3.1 05:04:35 15° SSE 05:04:35 15° SSE 05:05:46 10° SE visible
06 Mar 3.5 04:56:58 11° SSE 04:56:58 11° SSE 04:57:14 10° SSE visible
14 Mar 3.5 21:53:42 10° SSW 21:53:48 10° SSW 21:53:48 10° SSW visible
